Wind_Speed
10 8 6 4 3 2 3 3 5 7 8 9 10 11 13 13 12 10 5 10 14 17 11 7 5 3 2 3 3 3 3 7 7 6 9 10 6 8 8 10 12 7 8 7 14
11 9 6 4 2 2 3 5 7 8 9 10 11 13 13 12 10 13 13 17 16 10 5 9 5 3 4 5 4 5 4 5 6 7 9 6 10 8 7 8 8 9 11 13 15
11 9 7 4 2 3 4 7 9 9 9 10 12 12 7 7 8 8 20 16 9 6 4 9 2 4 6 5 7 6 4 7 10 11 12 10 7 4 7 7 6 7 8 12 15
10 9 7 4 2 3 6 8 9 10 9 10 11 10 7 4 2 12 18 17 9 4 8 6 6 4 4 6 4 6 8 7 7 10 11 9 7 9 11 5 4 3 4 11 12
9 8 7 4 3 5 7 8 10 10 9 10 11 9 6 4 5 13 18 15 7 4 5 6 5 7 6 8 14 13 12 10 9 10 9 8 8 8 7 3 4 3 5 7 11
9 8 7 5 6 6 7 10 11 9 9 9 9 5 5 3 3 9 13 15 9 13 16 10 10 14 9 4 7 10 12 12 8 8 9 9 7 3 5 5 2 4 5 8 11
9 9 8 7 7 7 9 11 11 9 8 6 5 9 4 5 2 8 8 15 13 9 9 8 7 3 6 10 14 16 10 9 7 8 4 9 6 6 2 5 5 6 7 8 11
11 9 8 8 8 8 10 12 10 7 6 4 4 3 3 2 2 5 5 9 8 13 14 13 17 9 5 14 10 4 7 5 9 7 7 2 3 6 1 3 3 6 7 7 9
13 11 9 10 9 9 10 9 4 2 2 3 5 8 5 4 0 4 4 3 3 5 6 6 7 5 7 7 5 7 5 6 9 10 6 6 1 7 2 2 4 7 8 7 8
15 11 10 10 10 10 11 6 6 8 4 5 9 4 4 3 2 3 2 2 4 2 5 6 4 5 2 5 3 6 5 3 7 7 6 6 6 7 5 3 4 7 7 8 8
15 13 12 10 11 10 11 6 3 4 4 3 4 2 5 4 1 5 3 4 7 5 5 3 1 6 6 5 6 6 6 3 4 4 3 8 5 9 7 6 3 6 7 7 8
15 14 13 11 11 9 10 6 4 2 2 3 3 4 2 1 3 11 11 4 4 5 2 2 5 5 3 3 4 5 7 5 3 4 3 7 5 8 8 5 1 5 6 7 8
16 13 13 12 12 8 7 4 0 2 5 5 3 2 2 3 4 7 10 5 4 7 6 6 4 0 2 3 9 3 4 5 6 3 7 6 6 8 6 5 6 5 6 7 7
17 13 11 13 8 1 2 3 0 1 3 8 5 3 4 1 3 4 4 3 2 3 6 5 2 1 3 1 6 2 5 4 5 1 2 6 3 6 7 7 4 7 7 7 8
17 13 10 10 12 5 2 2 3 2 4 6 4 2 3 1 5 2 2 4 6 5 3 3 3 5 4 3 4 2 3 4 5 5 7 7 2 3 7 6 5 7 7 7 7
15 14 10 3 9 5 1 4 3 3 5 3 5 6 7 4 2 4 2 3 3 4 9 4 1 3 4 3 2 2 5 6 4 4 3 7 2 4 4 3 4 6 6 6 7
16 13 9 6 5 7 2 4 4 5 3 5 6 5 9 5 4 2 2 4 2 3 5 5 3 4 3 5 5 6 5 2 2 1 2 5 2 1 8 5 3 3 5 6 7
15 12 8 8 6 5 5 3 7 3 5 3 4 5 4 7 3 4 4 4 2 3 4 4 3 4 5 4 4 4 3 2 3 4 4 3 4 3 8 5 6 3 3 6 6
13 8 4 6 7 1 3 7 4 6 5 6 5 6 7 4 1 6 4 4 5 5 2 3 3 2 3 3 2 3 0 2 2 3 3 4 4 4 6 6 6 3 5 6 7
9 6 11 11 5 3 4 8 7 3 3 5 4 8 4 9 5 5 7 2 4 3 4 2 1 1 3 2 2 3 1 1 1 3 5 6 5 4 7 0 4 5 5 6 6
3 2 1 6 6 3 7 8 8 3 2 2 4 2 5 4 5 5 5 1 1 3 3 3 2 3 2 3 3 2 3 2 0 1 2 4 3 4 7 3 3 4 5 4 4
4 3 2 9 4 3 8 7 3 4 1 1 3 3 2 4 4 2 3 5 4 2 1 3 3 1 3 4 4 3 3 2 3 2 1 3 5 7 8 5 5 2 5 3 4
2 3 1 5 4 7 5 2 3 3 4 3 4 3 2 3 3 2 5 1 1 2 1 2 2 1 1 1 2 3 4 2 4 3 4 3 5 6 7 6 7 4 4 3 5
3 2 2 2 5 4 10 8 5 2 3 2 2 4 3 3 2 4 4 3 2 1 1 2 3 4 3 2 2 4 5 5 5 2 3 7 3 7 7 7 6 6 4 3 4
3 3 2 3 5 10 8 5 12 5 4 4 4 9 6 5 5 5 5 4 3 4 3 2 3 1 5 5 3 4 5 9 8 8 3 3 5 6 7 6 6 6 4 2 3
2 2 1 3 3 4 7 3 9 7 7 5 6 11 8 5 4 6 7 6 5 5 5 3 2 2 3 6 4 5 8 9 11 9 12 14 13 7 6 7 6 7 5 2 2
3 2 0 1 2 2 5 11 7 9 6 2 6 6 9 5 9 9 7 5 8 8 7 6 2 1 2 3 5 7 12 11 6 8 5 6 4 8 5 6 6 7 6 3 2
Wind_Direction
9 12 11 1 356 20 18 14 350 342 335 327 324 323 323 320 308 273 37 325 318 313 309 303 254 252 57 63 5 290 266 28 28 36 108 121 110 89 113 97 71 75 66 15 355
10 14 21 19 3 355 346 344 336 335 331 328 326 323 322 316 292 70 351 333 318 305 285 244 268 194 88 19 8 20 47 45 10 99 124 124 113 134 113 72 47 46 26 7 358
11 9 22 37 11 339 332 331 331 331 329 327 329 328 326 329 280 39 348 347 335 304 249 295 317 40 48 64 8 8 85 95 56 84 100 100 106 54 126 87 56 16 356 358 358
8 3 12 16 6 332 327 329 330 326 324 326 332 327 304 307 12 356 349 357 8 23 267 254 244 108 86 31 87 99 87 98 93 95 113 96 85 74 51 81 39 358 302 8 1
358 2 356 353 337 324 327 330 328 324 321 321 322 315 305 217 40 351 2 356 0 332 294 295 286 134 110 121 84 94 103 93 95 82 95 107 77 102 91 114 221 276 20 24 3
352 353 343 336 324 320 322 327 326 321 316 320 325 301 256 294 14 6 14 25 29 41 47 28 64 82 67 41 41 114 109 112 114 110 122 123 137 192 106 255 261 27 1 30 15
350 337 335 328 317 314 318 325 322 315 310 315 305 298 48 82 48 20 24 37 45 67 71 49 108 57 100 96 111 125 114 126 141 156 129 147 159 91 106 252 29 344 16 35 4
341 334 326 321 317 308 314 323 314 305 303 298 298 289 71 127 97 14 3 58 61 76 83 77 78 58 67 120 155 136 163 171 177 165 150 178 117 122 169 351 1 353 22 18 7
338 331 321 317 316 306 309 321 350 286 314 326 289 212 118 129 224 2 9 42 86 78 82 110 87 103 154 173 179 178 282 144 166 190 132 207 94 133 192 270 339 10 19 6 3
339 330 318 315 315 309 305 288 268 307 273 272 271 262 171 90 33 337 360 308 285 248 203 213 174 172 26 356 347 336 279 97 99 178 190 207 181 153 164 272 359 1 13 11 4
342 331 319 313 314 315 315 290 218 206 61 26 5 118 123 109 173 62 347 286 236 214 272 174 23 46 30 9 318 290 298 317 93 117 259 236 215 162 167 237 29 347 23 8 8
340 334 321 313 310 306 297 271 65 339 214 149 131 98 67 272 230 45 2 243 194 260 159 217 71 48 315 3 293 293 304 63 112 130 211 280 228 142 162 217 233 347 30 11 7
337 335 324 312 307 284 261 357 347 334 258 159 160 129 106 274 49 1 341 307 353 61 57 62 62 109 320 339 352 117 21 355 321 164 233 283 250 143 174 134 235 45 51 25 6
335 335 330 314 305 252 233 268 157 360 268 149 196 121 168 120 118 11 357 347 162 67 67 75 144 334 263 106 352 308 4 309 289 203 345 178 298 164 157 199 183 43 38 20 2
334 331 326 319 306 277 56 297 276 256 276 144 130 97 140 223 132 94 303 261 27 96 258 73 61 348 32 9 335 23 318 306 300 249 286 171 251 106 123 205 52 28 23 22 7
336 327 326 5 277 295 291 301 269 232 242 132 127 165 173 186 103 143 163 54 356 99 50 87 223 36 355 306 243 297 256 203 254 262 263 135 208 191 173 97 29 18 13 11 10
330 319 306 284 334 323 305 259 214 243 171 140 172 176 226 150 136 219 185 148 293 214 176 172 96 133 309 268 180 238 272 290 296 260 247 102 285 83 123 113 74 6 8 15 9
326 310 290 242 257 311 259 247 245 253 169 73 153 183 209 151 107 153 198 188 142 275 290 204 226 347 4 40 332 324 333 71 280 321 307 133 254 192 124 192 114 93 39 35 10
331 316 264 250 233 201 259 224 236 317 90 134 150 198 179 169 337 204 218 46 52 19 298 331 113 127 60 19 341 11 349 356 297 266 317 189 86 93 168 232 74 53 64 32 11
336 308 255 211 191 180 241 243 242 61 103 159 238 194 216 164 191 201 155 357 120 12 338 61 203 195 111 266 194 312 214 317 261 348 307 293 113 182 195 194 23 32 52 25 14
299 246 265 173 149 209 229 234 232 92 351 207 266 141 270 133 224 189 106 331 12 128 307 332 204 130 139 194 39 199 202 197 315 117 210 310 262 74 125 92 24 14 69 34 12
288 240 191 152 200 205 229 264 24 145 33 133 313 311 306 131 201 263 111 56 15 148 214 52 339 240 82 73 30 326 339 349 121 222 184 170 273 120 132 158 159 301 77 21 41
249 257 187 183 219 222 202 170 314 169 187 181 219 289 15 172 206 37 80 57 60 243 11 77 226 270 223 215 171 244 159 74 95 69 226 149 265 148 158 220 142 140 82 18 36
284 242 146 176 283 289 234 209 202 21 290 211 93 122 166 162 55 145 125 157 154 14 44 357 291 233 220 186 123 178 162 207 189 161 233 229 254 190 206 211 140 133 113 49 49
228 256 329 192 231 235 271 291 221 174 264 209 195 226 196 174 155 187 109 132 189 164 203 254 256 341 295 126 184 250 193 182 209 231 189 213 297 312 125 137 117 128 145 67 49
245 259 314 302 338 262 222 268 245 197 164 217 245 201 220 178 194 181 138 176 180 157 194 178 270 320 287 127 211 256 235 202 204 240 270 271 283 111 114 120 160 173 132 113 40
194 144 70 291 283 243 228 221 239 256 183 84 256 245 206 107 76 39 67 77 131 149 185 157 212 239 262 180 265 281 224 195 197 189 198 221 206 148 165 175 189 160 151 151 95
Height
809 807 806 806 806 806 806 806 805 805 804 803 802 800 798 796 793 793 794 796 792 789 788 787 787 786 784 786 786 784 801 812 817 811 835 835 842 845 848 854 856 858 863 864 863
810 809 807 807 807 807 806 806 805 804 803 802 801 799 797 795 792 793 796 792 789 787 787 785 782 782 788 790 792 798 812 827 819 820 832 832 839 847 849 855 860 861 863 863 862
811 810 808 807 807 807 807 806 805 804 803 802 800 798 796 795 794 794 794 790 787 785 785 785 783 783 795 796 802 806 823 823 825 824 828 840 845 843 852 862 866 867 865 862 861
811 810 809 808 807 807 807 806 804 803 802 801 799 797 796 796 808 797 793 789 787 786 786 783 781 789 804 809 802 822 820 825 831 834 838 845 850 859 859 866 865 865 863 862 862
811 810 809 808 807 807 806 805 804 802 801 800 798 797 796 794 800 798 794 790 787 786 785 782 781 791 806 812 814 825 831 833 835 839 844 846 854 859 865 864 863 862 861 862 862
812 810 810 808 807 806 805 804 803 801 800 799 797 796 796 799 800 799 796 792 790 788 785 784 788 792 807 814 817 826 834 840 842 845 848 854 857 856 864 863 860 860 859 860 861
812 811 809 808 806 805 804 803 801 800 799 798 797 797 794 801 799 798 798 796 793 792 791 792 792 794 809 823 822 830 841 844 846 846 849 850 858 862 862 860 860 859 859 860 860
812 811 809 808 806 805 803 801 799 798 798 798 797 797 800 799 800 799 798 798 797 796 796 796 797 800 810 819 825 827 836 846 842 844 847 851 856 861 861 860 860 858 859 860 859
813 810 808 807 805 804 802 800 798 798 797 797 796 795 802 799 799 800 800 799 799 798 798 798 799 810 817 823 830 828 829 827 842 838 844 852 851 861 860 858 859 860 861 860 860
812 810 808 806 805 803 801 799 798 798 796 796 796 798 799 799 800 800 800 800 799 797 798 797 800 812 812 822 834 830 822 814 830 840 841 846 851 858 859 859 860 861 862 862 861
811 809 808 805 804 802 800 797 799 800 795 799 799 799 797 800 800 800 800 800 798 798 805 797 809 831 829 826 826 823 819 818 833 836 841 842 841 854 857 859 859 861 862 863 862
810 808 807 805 803 801 800 796 796 799 802 797 798 798 800 800 800 800 800 801 798 805 798 807 828 825 824 820 823 819 820 833 836 837 844 839 840 847 854 856 858 858 861 861 861
810 807 806 804 801 799 798 797 795 797 799 799 795 796 799 800 806 807 803 799 802 807 809 827 830 825 826 823 829 822 833 839 837 838 839 844 844 847 850 852 857 855 858 860 861
810 806 805 803 803 797 797 797 796 796 807 806 801 799 799 799 809 807 806 808 804 812 816 827 825 825 825 827 835 828 837 837 837 843 843 838 855 849 849 855 853 858 861 863 863
809 806 804 805 802 798 799 798 797 797 830 800 800 798 799 804 807 809 807 803 812 815 818 837 831 832 828 838 836 839 837 837 835 839 839 841 854 851 846 852 856 860 862 862 861
807 806 803 803 804 801 799 798 799 815 823 805 799 803 803 802 806 807 807 807 810 815 823 833 831 834 838 834 835 837 838 833 834 839 849 834 839 858 854 853 857 863 862 862 862
806 805 803 803 803 802 800 800 814 820 787 807 802 800 799 807 810 807 809 813 821 827 829 830 834 836 835 837 836 838 839 847 847 853 842 832 843 849 855 856 858 860 862 862 862
804 803 802 801 801 802 802 806 821 781 782 788 794 797 803 804 808 811 813 819 818 819 820 824 839 841 837 844 846 838 840 852 855 853 846 836 843 855 853 853 854 855 859 861 862
802 801 800 799 800 802 805 817 798 784 784 793 798 804 804 804 809 811 810 814 822 824 829 822 840 843 842 842 846 839 844 847 851 833 855 836 850 853 853 852 852 854 858 862 863
802 801 798 798 798 802 809 808 787 785 786 786 800 794 796 804 812 810 811 821 826 827 826 824 835 836 845 845 843 844 844 852 856 869 861 827 835 854 856 849 852 857 860 863 862
803 800 796 796 798 802 810 798 785 787 787 791 793 793 794 799 802 804 808 829 824 828 827 824 826 846 844 844 840 849 846 845 850 854 874 864 845 834 850 850 856 857 858 861 859
802 804 794 796 805 796 801 790 793 793 792 792 795 790 792 794 802 799 806 822 825 824 825 831 832 830 844 846 845 845 843 843 868 857 862 881 862 840 849 850 854 855 858 857 858
800 796 794 794 805 798 789 790 793 796 795 796 796 793 795 799 808 803 818 833 832 829 829 830 830 838 848 851 847 848 844 845 856 865 865 878 848 840 847 849 848 853 856 857 858
802 801 794 793 789 791 788 790 796 796 793 789 793 796 800 804 804 815 824 833 834 831 836 836 828 830 839 829 833 844 848 849 852 873 858 853 830 842 843 845 846 852 853 855 856
801 796 794 798 794 790 787 783 788 801 800 794 799 798 798 806 808 811 818 835 836 836 836 835 833 821 820 824 831 832 837 852 865 845 860 830 832 830 837 842 846 850 852 853 854
798 798 795 795 789 790 791 787 785 785 797 799 797 791 791 799 797 805 812 821 821 837 834 833 832 824 825 825 832 836 832 834 846 846 843 838 836 834 839 843 847 849 851 852 853
795 795 796 796 791 791 789 784 783 781 785 791 791 790 794 797 800 801 803 802 812 825 831 834 836 835 827 828 831 834 821 826 824 825 827 833 824 835 839 840 843 846 849 850 851